Regional Weather Roundup
Issued by NWS Upton, NY

Current Version | Previous Version | Graphics & Text | Print | Product List | Glossary Off
Versions: 1 2 3 4 5 6 7 8 9 10 11 12 13 14 15 16 17 18 19 20 21 22 23 24 25 26 27 28 29 30 31 32 33 34 35 36 37 38 39 40 41 42 43 44 45 46 47 48 49 50

000
ASUS41 KOKX 011104
RWROKX

REGIONAL WEATHER ROUNDUP
NATIONAL WEATHER SERVICE NEW YORK NY
700 AM EDT SAT AUG 01 2015

NOTE: "FAIR" INDICATES FEW OR NO CLOUDS BELOW 12,000 FEET WITH NO
SIGNIFICANT WEATHER AND/OR OBSTRUCTIONS TO VISIBILITY.

NYZ071-072-176-178-NJZ106-104-011200-
NEW YORK CITY METRO AREA


CITY           SKY/WX    TMP DP  RH WIND       PRES   REMARKS
CENTRAL PARK   SUNNY     76  60  57 VRB3      29.83R
LAGUARDIA APRT MOSUNNY   78  60  53 SW6       29.79R
KENNEDY INTL   MOSUNNY   75  65  70 SW8       29.81R
NEWARK/LIBERTY MOSUNNY   74  61  63 SW8       29.80R
BRNX BOT. GARD   N/A     75  59  57 NW2       29.81S
TETERBORO      MOSUNNY   72  60  66 CALM      29.78S
$$

NYZ177-179-078>081-011200-
LONG ISLAND NEW YORK

CITY           SKY/WX    TMP DP  RH WIND       PRES   REMARKS
FARMINGDALE    MOSUNNY   75  64  68 W7        29.80R
ISLIP          MOSUNNY   73  64  73 SW7       29.78R
SHIRLEY        MOSUNNY   75  64  68 SW5       29.80R
WESTHAMPTON    MOSUNNY   65  63  93 CALM      29.81R
MONTAUK POINT    N/A     76  66  71 SW3       29.80R
$$

NYZ052-065-067-011200-
HUDSON VALLEY

CITY           SKY/WX    TMP DP  RH WIND       PRES   REMARKS
WHITE PLAINS   MOSUNNY   72  60  66 W5        29.80R
NEWBURGH       MOSUNNY   68  63  83 W8        29.81R
MONTGOMERY     MOSUNNY   67  62  84 S6        29.79S
POUGHKEEPSIE   MOSUNNY   68  62  81 CALM      29.78R
ALBANY         CLOUDY    68  61  78 CALM      29.79R
$$

NJZ001-105-106-008-010-013-015-019>022-104-011200-
NEW JERSEY

CITY           SKY/WX    TMP DP  RH WIND       PRES   REMARKS
NEWARK/LIBERTY MOSUNNY   74  61  63 SW8       29.80R
TETERBORO      MOSUNNY   72  60  66 CALM      29.78S
CALDWELL       MOSUNNY   71  60  68 CALM      29.80S
MORRISTOWN     MOSUNNY   66  64  94 CALM      29.81R
SOMERVILLE     SUNNY     63  60  90 CALM      29.80R
SUSSEX         MOSUNNY   64  61  90 CALM      29.82R
ANDOVER          N/A     63  63 100 CALM      29.83R
TRENTON        SUNNY     71  62  73 CALM      29.82R
MILLVILLE      MOSUNNY   72  67  84 W5        29.85R
ATLANTIC CITY  MOSUNNY   74  66  76 SW7       29.85R
WRIGHTSTOWN    SUNNY     71  66  87 SW3       29.80S
TOMS RIVER       N/A     70  64  83 SW5       29.83S
BELMAR         MOSUNNY   70  61  73 SW6       29.82S
$$

PAZ047>061-062-071-011200-
EASTERN PENNSYLVANIA

CITY           SKY/WX    TMP DP  RH WIND       PRES   REMARKS
PHILADELPHIA   MOSUNNY   76  64  66 SW8       29.84R
ALLENTOWN      PTSUNNY   66  62  87 SW6       29.83R
SCRANTON       MOSUNNY   71  60  68 SW6       29.82F
$$

CTZ002-004>006-009-010-012-RIZ004-006-007-MAZ004-011-015-011200-
SOUTHERN NEW ENGLAND
 IN CT

CITY           SKY/WX    TMP DP  RH WIND       PRES   REMARKS
BRADLEY INTL   MOSUNNY   69  60  73 CALM      29.76R
HARTFORD       MOSUNNY   71  61  70 S7        29.76S
DANBURY        SUNNY     67  59  75 CALM      29.81R
WTRBRY/OXFORD  MOSUNNY   70  57  64 CALM      29.81R
BRIDGEPORT     SUNNY     73  64  73 CALM      29.78R
MERIDEN        SUNNY     65  61  87 CALM      29.78R
NEW HAVEN      MOSUNNY   68  66  93 CALM      29.78R
CHESTER        FAIR      72  64  78 W6        29.80R
GROTON         SUNNY     69  66  90 CALM      29.77S
WILLIMANTIC    MOSUNNY   63  59  87 CALM      29.78S

 IN RI

CITY           SKY/WX    TMP DP  RH WIND       PRES   REMARKS
PROVIDENCE     MOSUNNY   71  63  75 W7        29.77S
BLOCK ISLAND     N/A     73  66  78 SW10      29.80R
WESTERLY       MOSUNNY   66  64  93 CALM      29.78S

 IN MA

CITY           SKY/WX    TMP DP  RH WIND       PRES   REMARKS
BOSTON         SUNNY     74  57  55 SW12      29.75R
WORCESTER      SUNNY     66  56  70 W7        29.79S
WESTFIELD      SUNNY     64  60  87 CALM      29.77R
PROVINCETOWN   MOSUNNY   72  63  73 SW8       29.76F
NANTUCKET      SUNNY     71  69  93 SW8       29.78S
$$

ANZ330-335-338-340-345-350-353-355-011200-
COASTAL MARINE OBSERVATIONS


STATION/POSITION TIME  SKY/WX   TEMP    WIND        PRES    VSBY  WAVE
                                AIR SEA DIR/SP/G                  HT/PER
                 (UTC)          (F)     (DEG/KT/KT) (MB)    (MI)  (FT/S)
NY HARB ENTRANCE 0950            75 76  240/ 14/ 16 1008.4          3/ 9
4S FIRE IS       NOT AVBL
20S FIRE ISLAND  0950            77 75  240/ 12/ 14 1008.6          4/10
GREAT SOUTH BAY  1030            77 80  250/ 12/ 17   N/A
23SW MTP         1050            76 74  250/ 12/ 16 1008.3          4/ 9
HUDSON CANYON    NOT AVBL
KINGS POINT      1000            76 70  250/  6/  6 1007.8
EXECUTION ROCKS  1000            74     200/  4/  4   N/A
CENTRAL LI SOUND NOT AVBL
EASTERN LI SOUND 1000            69 69   CALM  /  2   N/A
ROBBINS REEF     1000            74     260/ 13/ 16 1007.6
$$


>>>>>>>>>>>>>>>>>>>>>>>>>>>> KEY <<<<<<<<<<<<<<<<<<<<<<<<<<<
>                                                          <
>     SKY/WX - SKY CONDITION/PRESENT WEATHER               <
>     TMP    - TEMPERATURE IN FAHRENHEIT                   <
>     DP     - DEWPOINT IN FAHRENHEIT                      <
>     RH     - RELATIVE HUMIDITY IN PERCENT                <
>     WIND   - DIRECTION AND SPEED IN MPH                  <
>     PRES   - MEAN SEA LEVEL PRESSURE IN INCHES OF HG     <
>     WCI    - WIND CHILL INDEX                            <
>     VSB    - VISIBILITY IN MILES                         <
>     HX     - HEAT INDEX                                  <
>     TC     - TEMPERATURE IN CELSIUS                      <
>     VRB    - VARIABLE WIND DIRECTION                     <
>                                                          <
>>>>>>>>>>>>>>>>>>>>>>>>>>>> KEY <<<<<<<<<<<<<<<<<<<<<<<<<<<




USA.gov is the U.S. government's official web portal to all federal, state and local government web resources and services.